EW5393 Weather Reports


Display with metric or nautical units.
time (UTC)temp
F
wind
direction
speed
MPH
gust
MPH
rain 1hr
in
rain 24hr
in
rain mn
in
humidity
%
barometer
mb
20260903192306 56 53 1.0 1.0 0.08 0.08 0.08 79 1007.6
20260903191804 57 53 1.0 1.0 0.07 0.07 0.07 78 1007.6
20260903191304 57 53 1.0 1.0 0.06 0.06 0.06 77 1007.7
20260903190804 57 53 1.0 1.0 0.04 0.04 0.04 77 1007.8
20260903190303 58 53 1.0 1.0 0.03 0.03 0.03 75 1007.7
20260903185804 58 53 1.0 1.0 0.02 0.02 0.02 74 1007.6
20260903185306 58 53 1.0 1.0 0.01 0.01 0.01 73 1007.8
20260903184804 58 53 1.0 1.0 0.00 0.00 0.00 72 1007.5
20260903183804 59 53 1.0 1.0 0.00 0.00 0.00 68 1007.5
20260903183303 59 53 1.0 1.0 0.00 0.00 0.00 67 1007.4
20260903182804 59 53 1.0 1.0 0.00 0.00 0.00 66 1007.4
20260903182306 59 53 1.0 1.0 0.00 0.00 0.00 65 1007.2
20260903181804 60 53 1.0 1.0 0.00 0.00 0.00 64 1007.1
20260903181303 60 53 1.0 1.0 0.00 0.00 0.00 63 1007.1
20260903180804 61 53 1.0 1.0 0.00 0.00 0.00 63 1007.3
20260903180304 61 53 1.0 1.0 0.00 0.00 0.00 62 1007.2
20260903175804 62 53 1.0 1.0 0.00 0.00 0.00 64 1007.2
20260903175306 62 53 1.0 1.0 0.00 0.00 0.00 67 1007.1
20260903174804 62 53 1.0 1.0 0.00 0.00 0.00 66 1007.0
20260903174303 62 53 1.0 1.0 0.00 0.00 0.00 65 1006.8
20260903173804 63 53 1.0 1.0 0.00 0.00 0.00 64 1006.8
20260903173304 63 53 1.0 1.0 0.00 0.00 0.00 64 1006.7
20260903172804 63 53 1.0 1.0 0.00 0.00 0.00 65 1006.7
20260903172306 63 53 1.0 1.0 0.00 0.00 0.00 66 1006.6
20260903171804 63 53 1.0 1.0 0.00 0.00 0.00 65 1006.5
20260903170804 63 53 1.0 1.0 0.00 0.00 0.00 64 1006.6
20260903170304 64 53 1.0 1.0 0.00 0.00 0.00 63 1006.5
20260903165804 64 53 1.0 1.0 0.00 0.00 0.00 63 1006.6
20260903165305 64 53 1.0 1.0 0.00 0.00 0.00 63 1006.6
20260903164304 64 53 1.0 1.0 0.00 0.00 0.00 62 1006.5
20260903163803 65 53 1.0 1.0 0.00 0.00 0.00 62 1006.2
20260903163304 65 53 1.0 1.0 0.00 0.00 0.00 62 1006.2
20260903162306 65 53 1.0 1.0 0.00 0.00 0.00 61 1006.3
20260903161804 66 53 1.0 1.0 0.00 0.00 0.00 61 1006.1
20260903161304 66 53 1.0 1.0 0.00 0.00 0.00 61 1006.1
20260903160804 64 53 1.0 1.0 0.00 0.00 0.00 63 1006.2
20260903160304 63 53 1.0 1.0 0.00 0.00 0.00 66 1006.1
20260903155803 62 53 1.0 1.0 0.00 0.00 0.00 67 1006.1
20260903155306 61 53 1.0 1.0 0.00 0.00 0.00 67 1005.9
20260903154803 61 53 1.0 1.0 0.00 0.00 0.00 68 1005.9
20260903154304 61 53 1.0 1.0 0.00 0.00 0.00 68 1005.8
20260903153803 60 53 1.0 1.0 0.00 0.00 0.00 69 1005.9
20260903153304 60 53 1.0 1.0 0.00 0.00 0.00 69 1005.8
20260903152804 60 53 1.0 1.0 0.00 0.00 0.00 70 1006.0
20260903152306 60 53 1.0 1.0 0.00 0.00 0.00 69 1005.6
20260903151804 60 53 1.0 1.0 0.00 0.00 0.00 69 1006.0
20260903151304 60 53 1.0 1.0 0.00 0.00 0.00 69 1005.8
20260903150804 60 53 1.0 1.0 0.00 0.00 0.00 69 1005.8
20260903145804 60 53 1.0 1.0 0.00 0.00 0.00 69 1005.4
20260903145306 60 53 1.0 1.0 0.00 0.00 0.00 68 1005.5
20260903144804 60 53 1.0 1.0 0.00 0.00 0.00 68 1005.6
20260903144303 60 53 1.0 1.0 0.00 0.00 0.00 68 1005.5
20260903143804 60 53 1.0 1.0 0.00 0.00 0.00 68 1005.5
20260903143303 60 53 1.0 1.0 0.00 0.00 0.00 68 1005.5
20260903142804 60 53 1.0 1.0 0.00 0.00 0.00 68 1005.3
20260903142306 60 53 1.0 1.0 0.00 0.00 0.00 68 1005.3
20260903141803 60 53 1.0 1.0 0.00 0.00 0.00 68 1005.4
20260903141304 60 53 1.0 1.0 0.00 0.00 0.00 68 1005.5
20260903140804 60 53 1.0 1.0 0.00 0.00 0.00 68 1005.5
20260903140304 60 53 1.0 1.0 0.00 0.00 0.00 68 1005.1
20260903135803 59 53 1.0 1.0 0.00 0.00 0.00 69 1005.4
20260903134803 59 53 1.0 1.0 0.00 0.00 0.00 69 1005.3
20260903134304 59 53 1.0 1.0 0.00 0.00 0.00 68 1005.3
20260903133803 59 53 1.0 1.0 0.00 0.00 0.00 69 1005.2
20260903133304 59 53 1.0 1.0 0.00 0.00 0.00 69 1005.3
20260903132803 59 53 1.0 1.0 0.00 0.00 0.00 69 1005.1
20260903132306 58 53 1.0 1.0 0.00 0.00 0.00 70 1005.4
20260903131804 58 53 1.0 1.0 0.00 0.00 0.00 70 1005.3
20260903131304 58 53 1.0 1.0 0.00 0.00 0.00 71 1005.3
20260903130804 58 53 1.0 1.0 0.00 0.00 0.00 71 1005.4
20260903124804 58 53 1.0 1.0 0.00 0.00 0.00 71 1005.2
20260903124304 58 53 1.0 1.0 0.00 0.00 0.00 70 1005.1
20260903123804 58 53 1.0 1.0 0.00 0.00 0.00 70 1005.1
20260903123303 59 53 1.0 1.0 0.00 0.00 0.00 69 1005.1
20260903122804 59 53 1.0 1.0 0.00 0.00 0.00 69 1005.0
20260903122305 59 53 1.0 1.0 0.00 0.00 0.00 69 1005.0
20260903121804 58 53 1.0 1.0 0.00 0.00 0.00 70 1005.1
20260903121304 58 53 1.0 1.0 0.00 0.00 0.00 68 1004.8
20260903120804 58 53 1.0 1.0 0.00 0.00 0.00 68 1004.9
20260903120304 58 53 1.0 1.0 0.00 0.00 0.00 68 1004.8
20260903115804 58 53 1.0 1.0 0.00 0.00 0.00 67 1004.9
20260903115305 58 53 1.0 1.0 0.00 0.00 0.00 65 1004.9
20260903114804 58 53 1.0 1.0 0.00 0.00 0.00 64 1004.9
20260903114303 58 53 1.0 1.0 0.00 0.00 0.00 61 1004.9
20260903113804 58 53 1.0 1.0 0.00 0.00 0.00 60 1004.9
20260903113304 58 53 1.0 1.0 0.00 0.00 0.00 60 1004.9
20260903112305 58 53 1.0 1.0 0.00 0.00 0.00 60 1004.7
20260903111804 58 53 1.0 1.0 0.00 0.00 0.00 60 1004.7
20260903111304 58 53 1.0 1.0 0.00 0.00 0.00 60 1005.0
20260903110804 58 53 1.0 1.0 0.00 0.00 0.00 60 1004.8
20260903105803 58 53 1.0 1.0 0.00 0.00 0.00 61 1004.9
20260903105306 58 53 1.0 1.0 0.00 0.00 0.00 61 1004.9
20260903104304 58 53 1.0 1.0 0.00 0.00 0.00 61 1004.7
20260903103804 58 53 1.0 1.0 0.00 0.00 0.00 61 1004.8
20260903103304 58 53 1.0 1.0 0.00 0.00 0.00 61 1004.9
20260903102803 59 53 1.0 1.0 0.00 0.00 0.00 60 1004.9
20260903102306 59 53 1.0 1.0 0.00 0.00 0.00 60 1004.8
20260903101803 59 53 1.0 1.0 0.00 0.00 0.00 60 1004.9
20260903101304 59 53 1.0 1.0 0.00 0.00 0.00 60 1004.9
20260903100304 59 53 1.0 1.0 0.00 0.00 0.00 60 1004.9
20260903095803 59 53 1.0 1.0 0.00 0.00 0.00 60 1004.8
20260903095306 59 53 1.0 1.0 0.00 0.00 0.00 60 1004.8
20260903094803 59 53 1.0 1.0 0.00 0.00 0.00 59 1004.7
20260903094304 59 53 1.0 1.0 0.00 0.00 0.00 59 1004.7
20260903093304 60 53 1.0 1.0 0.00 0.00 0.00 58 1004.8
20260903092804 60 53 1.0 1.0 0.00 0.00 0.00 57 1004.8
20260903092306 60 53 1.0 1.0 0.00 0.00 0.00 57 1004.7
20260903091804 60 53 1.0 1.0 0.00 0.00 0.00 57 1004.9
20260903091304 60 53 1.0 1.0 0.00 0.00 0.00 57 1005.0
20260903090804 60 53 1.0 1.0 0.00 0.00 0.00 58 1004.9
20260903090304 60 53 1.0 1.0 0.00 0.00 0.00 58 1004.8
20260903085804 60 53 1.0 1.0 0.00 0.00 0.00 58 1004.8
20260903085306 60 53 1.0 1.0 0.00 0.00 0.00 58 1004.7
20260903084804 59 53 1.0 1.0 0.00 0.00 0.00 59 1004.8
20260903084304 59 53 1.0 1.0 0.00 0.00 0.00 59 1004.7
20260903083804 59 53 1.0 1.0 0.00 0.00 0.00 60 1004.6
20260903083303 59 53 1.0 1.0 0.00 0.00 0.00 60 1004.5
20260903082804 59 53 1.0 1.0 0.00 0.00 0.00 61 1004.5
20260903082306 59 53 1.0 1.0 0.00 0.00 0.00 61 1004.5
20260903081804 59 53 1.0 1.0 0.00 0.00 0.00 61 1004.5
20260903081304 58 53 1.0 1.0 0.00 0.00 0.00 61 1004.7
20260903080803 58 53 1.0 1.0 0.00 0.00 0.00 61 1004.6
20260903080304 58 53 1.0 1.0 0.00 0.00 0.00 61 1004.7
20260903075804 58 53 1.0 1.0 0.00 0.00 0.00 61 1004.8
20260903075306 58 53 1.0 1.0 0.00 0.00 0.00 61 1004.8
20260903074804 58 53 1.0 1.0 0.00 0.00 0.00 61 1004.7
20260903074303 58 53 1.0 1.0 0.00 0.00 0.00 62 1004.8
20260903073804 58 53 1.0 1.0 0.00 0.00 0.00 62 1004.8
20260903073304 58 53 1.0 1.0 0.00 0.00 0.00 62 1004.8
20260903072803 58 53 1.0 1.0 0.00 0.00 0.00 63 1004.9
20260903072306 58 53 1.0 1.0 0.00 0.00 0.00 63 1004.9
20260903071804 58 53 1.0 1.0 0.00 0.00 0.00 63 1004.8
20260903071304 58 53 1.0 1.0 0.00 0.00 0.00 63 1004.7
20260903070304 58 53 1.0 1.0 0.00 0.00 0.00 63 1004.6
20260903065804 58 53 1.0 1.0 0.00 0.00 0.00 63 1004.7
20260903065306 58 53 1.0 1.0 0.00 0.00 0.00 62 1004.6
20260903064804 58 53 1.0 1.0 0.00 0.00 0.00 62 1004.5
20260903064304 58 53 1.0 1.0 0.00 0.00 0.00 62 1004.4
20260903063804 58 53 1.0 1.0 0.00 0.00 0.00 63 1004.1
20260903063304 58 53 1.0 1.0 0.00 0.00 0.00 63 1004.3
20260903062804 58 53 1.0 1.0 0.00 0.00 0.00 63 1004.4
20260903062306 58 53 1.0 1.0 0.00 0.00 0.00 63 1004.4
20260903061304 58 53 1.0 1.0 0.00 0.00 0.00 63 1004.6
20260903060804 58 53 1.0 1.0 0.00 0.00 0.00 63 1004.6
20260903060305 59 53 1.0 1.0 0.00 0.00 0.00 63 1004.7
20260903055804 59 53 1.0 1.0 0.00 0.00 0.00 63 1004.7
20260903055306 59 53 1.0 1.0 0.00 0.00 0.00 62 1004.7
20260903054803 59 53 1.0 1.0 0.00 0.00 0.00 62 1004.5
20260903054304 59 53 1.0 1.0 0.00 0.00 0.00 61 1004.7
20260903053803 60 53 1.0 1.0 0.00 0.00 0.00 61 1004.5
20260903053304 60 53 1.0 1.0 0.00 0.00 0.00 60 1004.6
20260903052804 60 53 1.0 1.0 0.00 0.00 0.00 59 1004.6
20260903052307 60 53 1.0 1.0 0.00 0.00 0.00 60 1004.7
20260903051804 60 53 1.0 1.0 0.00 0.00 0.00 59 1004.5
20260903051304 60 53 1.0 1.0 0.00 0.00 0.00 59 1004.6
20260903050804 61 53 1.0 1.0 0.00 0.00 0.00 60 1004.8
20260903050304 61 53 1.0 1.0 0.00 0.00 0.00 59 1004.7
20260903045804 61 53 1.0 1.0 0.00 0.00 0.00 59 1004.8
20260903044803 61 53 1.0 1.0 0.00 0.00 0.00 60 1004.8
20260903044304 61 53 1.0 1.0 0.00 0.00 0.00 61 1004.8
20260903043803 61 53 1.0 1.0 0.00 0.00 0.00 60 1004.7
20260903042804 61 53 1.0 1.0 0.00 0.00 0.00 60 1005.1
20260903042306 61 53 1.0 1.0 0.00 0.00 0.00 61 1005.1
20260903041804 61 53 1.0 1.0 0.00 0.00 0.00 60 1005.2
20260903041304 61 53 1.0 1.0 0.00 0.00 0.00 60 1005.1
20260903040804 61 53 1.0 1.0 0.00 0.00 0.00 60 1005.2
20260903040304 61 53 1.0 1.0 0.00 0.00 0.00 60 1005.3
20260903034304 62 53 1.0 1.0 0.00 0.00 0.00 58 1005.7
20260903033804 62 53 1.0 1.0 0.00 0.00 0.00 58 1005.8
20260903033303 62 53 1.0 1.0 0.00 0.00 0.00 58 1006.1
20260903032804 63 53 1.0 1.0 0.00 0.00 0.00 58 1006.2
20260903032305 63 53 1.0 1.0 0.00 0.00 0.00 58 1006.3
20260903031804 63 53 1.0 1.0 0.00 0.00 0.00 57 1006.3
20260903031304 63 53 1.0 1.0 0.00 0.00 0.00 56 1006.3
20260903030803 64 53 1.0 1.0 0.00 0.00 0.00 56 1006.3
20260903030304 64 53 1.0 1.0 0.00 0.00 0.00 55 1006.4
20260903025804 64 53 1.0 1.0 0.00 0.00 0.00 55 1006.3
20260903025306 65 53 1.0 1.0 0.00 0.00 0.00 54 1006.3
20260903024804 65 53 1.0 1.0 0.00 0.00 0.00 54 1006.5
20260903024304 65 53 1.0 1.0 0.00 0.00 0.00 54 1006.2
20260903023804 66 53 1.0 1.0 0.00 0.00 0.00 53 1006.5
20260903023304 66 53 1.0 1.0 0.00 0.00 0.00 53 1006.4
20260903022803 66 53 1.0 1.0 0.00 0.00 0.00 53 1006.4
20260903022306 66 53 1.0 1.0 0.00 0.00 0.00 52 1006.5
20260903021804 67 53 1.0 1.0 0.00 0.00 0.00 51 1006.4
20260903021303 67 53 1.0 1.0 0.00 0.00 0.00 51 1006.5
20260903020804 67 53 1.0 1.0 0.00 0.00 0.00 50 1006.5
20260903020304 68 53 1.0 1.0 0.00 0.00 0.00 47 1006.5
20260903015804 68 53 1.0 1.0 0.00 0.00 0.00 46 1006.3
20260903015306 68 53 1.0 1.0 0.00 0.00 0.00 46 1006.4
20260903014804 69 53 1.0 1.0 0.00 0.00 0.00 46 1006.3
20260903014304 69 53 1.0 1.0 0.00 0.00 0.00 45 1006.4
20260903013804 69 53 1.0 1.0 0.00 0.00 0.00 44 1006.3
20260903013303 69 53 1.0 1.0 0.00 0.00 0.00 44 1006.3
20260903012804 70 53 1.0 1.0 0.00 0.00 0.00 43 1006.2
20260903012306 70 53 1.0 1.0 0.00 0.00 0.00 43 1006.4
20260903011804 70 53 1.0 1.0 0.00 0.00 0.00 43 1006.1
20260903011304 70 53 1.0 1.0 0.00 0.00 0.00 43 1006.2
20260903010803 70 53 1.0 1.0 0.00 0.00 0.00 42 1006.3
20260903010304 70 53 1.0 1.0 0.00 0.00 0.00 42 1006.0
20260903005306 71 53 1.0 1.0 0.00 0.00 0.00 41 1006.3
20260903004804 71 53 1.0 1.0 0.00 0.00 0.00 40 1006.0
20260903004305 71 53 1.0 1.0 0.00 0.00 0.00 40 1006.1
20260903003803 71 53 1.0 1.0 0.00 0.00 0.00 39 1006.2
20260903003304 71 53 1.0 1.0 0.00 0.00 0.00 39 1006.2
20260903002804 72 53 1.0 1.0 0.00 0.00 0.00 38 1006.2
20260903002306 72 53 1.0 1.0 0.00 0.00 0.00 38 1006.1
20260903001804 72 53 1.0 1.0 0.00 0.00 0.00 38 1006.2
20260903001304 73 53 1.0 1.0 0.00 0.00 0.00 38 1006.1
20260903000803 73 53 1.0 1.0 0.00 0.00 0.00 37 1006.2
20260903000303 73 53 1.0 1.0 0.00 0.00 0.00 37 1006.3
20260902235804 73 53 1.0 1.0 0.00 0.00 0.00 38 1006.2
20260902235305 73 53 1.0 1.0 0.00 0.00 0.00 37 1006.1
20260902234803 73 53 1.0 1.0 0.00 0.00 0.00 38 1006.2
20260902234304 73 53 1.0 1.0 0.00 0.00 0.00 38 1006.4
20260902233804 73 53 1.0 1.0 0.00 0.00 0.00 37 1006.3
20260902233303 73 53 1.0 1.0 0.00 0.00 0.00 37 1006.4
20260902232804 73 53 1.0 1.0 0.00 0.00 0.00 37 1006.5
20260902231803 73 53 1.0 1.0 0.00 0.00 0.00 37 1006.3
20260902231304 73 53 1.0 1.0 0.00 0.00 0.00 39 1006.4
20260902230803 73 53 1.0 1.0 0.00 0.00 0.00 39 1006.3
20260902230304 73 53 1.0 1.0 0.00 0.00 0.00 39 1006.4
20260902225306 72 53 1.0 1.0 0.00 0.00 0.00 40 1006.8
20260902224304 72 53 1.0 1.0 0.00 0.00 0.00 42 1007.0
20260902223804 72 53 1.0 1.0 0.00 0.00 0.00 42 1006.9
20260902222804 72 53 1.0 1.0 0.00 0.00 0.00 41 1006.7
20260902222306 72 53 1.0 1.0 0.00 0.00 0.00 41 1007.1
20260902221804 72 53 1.0 1.0 0.00 0.00 0.00 41 1007.2
20260902221303 72 53 1.0 1.0 0.00 0.00 0.00 40 1007.3
20260902220304 73 53 1.0 1.0 0.00 0.00 0.00 39 1007.4
20260902215804 73 53 1.0 1.0 0.00 0.00 0.00 40 1007.4
20260902215306 72 53 1.0 1.0 0.00 0.00 0.00 40 1007.5
20260902214804 72 53 1.0 1.0 0.00 0.00 0.00 39 1007.7
20260902214303 73 53 1.0 1.0 0.00 0.00 0.00 39 1007.7
20260902213304 73 53 1.0 1.0 0.00 0.00 0.00 37 1007.8
20260902212804 73 53 1.0 1.0 0.00 0.00 0.00 37 1007.5
20260902212306 73 53 1.0 1.0 0.00 0.00 0.00 37 1007.7
20260902211804 73 53 1.0 1.0 0.00 0.00 0.00 38 1007.7
20260902211304 73 53 1.0 1.0 0.00 0.00 0.00 38 1007.7
20260902210804 73 53 1.0 1.0 0.00 0.00 0.00 39 1007.8
20260902210303 72 53 1.0 1.0 0.00 0.00 0.00 38 1007.8
20260902205804 72 53 1.0 1.0 0.00 0.00 0.00 41 1007.9
20260902205306 72 53 1.0 1.0 0.00 0.00 0.00 39 1007.9
20260902204804 72 53 1.0 1.0 0.00 0.00 0.00 39 1008.0
20260902204304 72 53 1.0 1.0 0.00 0.00 0.00 39 1007.9
20260902203804 73 53 1.0 1.0 0.00 0.00 0.00 39 1008.2
20260902203303 73 53 1.0 1.0 0.00 0.00 0.00 40 1008.3
20260902202804 73 53 1.0 1.0 0.00 0.00 0.00 38 1008.1
20260902202306 73 53 1.0 1.0 0.00 0.00 0.00 41 1008.0
20260902201804 73 53 1.0 1.0 0.00 0.00 0.00 39 1008.1
20260902201304 73 53 1.0 1.0 0.00 0.00 0.00 41 1008.1
20260902200804 73 53 1.0 1.0 0.00 0.00 0.00 43 1008.1
20260902200303 73 53 1.0 1.0 0.00 0.00 0.00 44 1008.2
20260902195804 73 53 1.0 1.0 0.00 0.00 0.00 44 1008.2
20260902195306 72 53 1.0 1.0 0.00 0.00 0.00 43 1008.1
20260902194803 72 53 1.0 1.0 0.00 0.00 0.00 41 1008.3
20260902194304 72 53 1.0 1.0 0.00 0.00 0.00 42 1008.1
20260902193804 72 53 1.0 1.0 0.00 0.00 0.00 43 1008.3
20260902193303 72 53 1.0 1.0 0.00 0.00 0.00 45 1008.5
20260902192804 71 53 1.0 1.0 0.00 0.00 0.00 44 1008.5